TimeMST,TemperatureF,Dew PointF,Humidity,Sea Level PressureIn,VisibilityMPH,Wind Direction,Wind SpeedMPH,Gust SpeedMPH,PrecipitationIn,Events,Conditions,WindDirDegrees,DateUTC
12:47 AM,10.4,6.8,85,30.02,7.0,ENE,3.5,-,N/A,,Overcast,70,2014-01-01 07:47:00
12:52 AM,10.0,7.0,87,30.19,8.0,NE,4.6,-,N/A,,Overcast,50,2014-01-01 07:52:00
1:43 AM,8.6,8.6,100,30.05,3.0,Calm,Calm,-,N/A,,Overcast,0,2014-01-01 08:43:00
1:52 AM,10.0,7.0,87,30.22,5.0,NNE,3.5,-,N/A,,Overcast,30,2014-01-01 08:52:00
2:00 AM,10.4,6.8,85,30.05,5.0,Calm,Calm,-,N/A,,Overcast,0,2014-01-01 09:00:00
2:47 AM,10.4,8.6,92,30.06,8.0,ENE,3.5,-,N/A,,Overcast,60,2014-01-01 09:47:00
2:52 AM,10.0,8.1,92,30.24,8.0,NE,3.5,-,N/A,,Overcast,40,2014-01-01 09:52:00
3:28 AM,10.4,8.6,92,30.08,1.5,North,4.6,-,N/A,,Overcast,10,2014-01-01 10:28:00
3:41 AM,10.4,8.6,92,30.08,0.8,Calm,Calm,-,N/A,,Overcast,0,2014-01-01 10:41:00
3:52 AM,10.9,9.0,92,30.27,0.5,North,3.5,-,N/A,Fog,Light Freezing Fog,360,2014-01-01 10:52:00
4:37 AM,12.2,10.4,92,30.08,0.2,Calm,Calm,-,N/A,Fog,Light Freezing Fog,0,2014-01-01 11:37:00
4:52 AM,12.0,10.9,95,30.26,0.5,Calm,Calm,-,N/A,Fog,Light Freezing Fog,0,2014-01-01 11:52:00
5:52 AM,15.1,12.0,88,30.29,0.5,NNW,5.8,-,N/A,Fog,Light Freezing Fog,340,2014-01-01 12:52:00
6:52 AM,15.1,12.9,91,30.31,1.0,NW,3.5,-,N/A,,Overcast,320,2014-01-01 13:52:00
7:12 AM,15.8,12.2,86,30.14,3.0,NW,4.6,-,N/A,,Overcast,310,2014-01-01 14:12:00
7:19 AM,15.8,12.2,86,30.14,2.0,WNW,4.6,-,N/A,,Overcast,300,2014-01-01 14:19:00
7:32 AM,15.8,14.0,93,30.15,5.0,NW,4.6,-,N/A,,Overcast,310,2014-01-01 14:32:00
7:50 AM,15.8,14.0,93,30.16,6.0,Calm,Calm,-,N/A,,Overcast,0,2014-01-01 14:50:00
7:52 AM,16.0,14.0,92,30.33,6.0,Calm,Calm,-,N/A,,Overcast,0,2014-01-01 14:52:00
8:52 AM,18.0,15.1,88,30.36,7.0,SE,3.5,-,0.00,,Mostly Cloudy,130,2014-01-01 15:52:00
9:52 AM,19.9,18.0,92,30.37,9.0,SSW,3.5,-,N/A,,Overcast,200,2014-01-01 16:52:00
10:52 AM,21.9,19.9,92,30.38,8.0,Calm,Calm,-,0.00,,Overcast,0,2014-01-01 17:52:00
11:19 AM,26.6,24.8,93,30.20,10.0,North,9.2,-,N/A,,Overcast,10,2014-01-01 18:19:00
11:52 AM,28.0,23.0,81,30.35,10.0,North,23.0,27.6,N/A,,Overcast,350,2014-01-01 18:52:00
12:18 PM,28.4,23.0,80,30.19,10.0,North,27.6,34.5,N/A,,Scattered Clouds,350,2014-01-01 19:18:00
12:52 PM,28.0,21.0,75,30.35,10.0,NNW,25.3,33.4,N/A,,Clear,340,2014-01-01 19:52:00
1:52 PM,28.9,21.0,72,30.34,10.0,North,24.2,33.4,N/A,,Clear,350,2014-01-01 20:52:00
2:52 PM,28.9,19.0,67,30.35,10.0,NNW,25.3,34.5,N/A,,Clear,340,2014-01-01 21:52:00
3:52 PM,28.0,19.0,69,30.37,10.0,NNW,21.9,-,N/A,,Clear,340,2014-01-01 22:52:00
4:52 PM,24.1,18.0,77,30.40,10.0,North,15.0,-,N/A,,Clear,350,2014-01-01 23:52:00
5:52 PM,23.0,18.0,81,30.41,10.0,North,10.4,-,N/A,,Partly Cloudy,350,2014-01-02 00:52:00
6:52 PM,23.0,18.0,81,30.42,10.0,Calm,Calm,-,N/A,,Mostly Cloudy,0,2014-01-02 01:52:00
7:52 PM,24.1,19.0,81,30.40,10.0,Calm,Calm,-,N/A,,Overcast,0,2014-01-02 02:52:00
8:52 PM,23.0,19.0,85,30.38,10.0,SE,3.5,-,N/A,,Overcast,140,2014-01-02 03:52:00
9:05 PM,23.0,19.4,86,30.23,10.0,SE,3.5,-,N/A,,Overcast,140,2014-01-02 04:05:00
9:37 PM,23.0,19.4,86,30.22,10.0,SSE,3.5,-,N/A,,Overcast,160,2014-01-02 04:37:00
9:52 PM,23.0,19.0,85,30.36,10.0,SE,3.5,-,N/A,,Overcast,140,2014-01-02 04:52:00
10:52 PM,21.9,19.0,89,30.34,10.0,SE,3.5,-,N/A,,Overcast,130,2014-01-02 05:52:00
11:52 PM,21.0,18.0,88,30.29,10.0,SSE,3.5,-,N/A,,Overcast,150,2014-01-02 06:52:00